Location: Buckenweiler
(49.0667°N, 10.2500°E)
Time: 18:02:16
(UTC+00:00)

Cosmos 2228 Rocket - Visible Passes

Search period start: 11 April 2026 00:00
Search period end: 21 April 2026 00:00
Orbit: 613 x 645 km, 82.5° (Epoch: 11 April)

Date Brightness Start Highest point End Pass type
(mag) Time Alt. Az. Time Alt. Az. Time Alt. Az.
11 Apr 3.1 18:38:07 10° N 18:42:38 73° E 18:47:04 10° SSE visible
11 Apr 6.0 20:17:53 10° NW 20:20:05 14° W 20:22:14 10° WSW visible
12 Apr 3.7 18:58:39 10° NNW 19:03:05 60° W 19:07:27 10° S visible
13 Apr 5.0 19:19:26 10° NNW 19:23:26 32° W 19:27:21 10° SSW visible
14 Apr 5.9 19:40:37 10° NW 19:43:38 18° W 19:46:37 10° SW visible
16 Apr 4.5 18:42:40 10° NNW 18:46:54 43° W 18:51:05 10° SSW visible
17 Apr 5.7 19:03:36 10° NW 19:07:10 24° W 19:10:41 10° SW visible
18 Apr 6.2 19:25:15 10° NW 19:27:19 13° W 19:29:22 10° WSW visible
